SCP
0 0 0 0 0 0 0 0 0 0 0 0 0 0 0 0 0 0 0 0 0 0 0 0 0 0 0 0 0 0 0 0 0 0 0 0 0 0 0 0 0 0 0
0 0 0 0 0 0 0 0 0 0 0 0 0 0 0 0 0 0 0 0 0 0 0 0 0 0 0 0 0 0 0 0 0 0 0 0 0 0 0 0 0 0 0
0 0 0 0 0 0 0 0 0 0 0 0 0 0 0 0 0 0 0 0 0 0 0 0 0 0 0 0 0 0 0 0 0 0 0 0 0 0 0 0 0 0 0
0 0 0 0 0 0 0 0 0 0 0 0 0 0 0 0 0 0 0 0 0 0 0 0 0 0 0 0 0 0 0 0 0 0 0 0 0 0 0 0 0 0 0
0 0 0 0 0 0 0 0 0 0 0 0 0 0 0 0 0 0 0 0 0 0 0 0 0 0 0 0 0 0 0 0 0 0 0 0 0 0 0 0 0 0 0
0 0 0 0 0 0 0 0 0 0 0 0 0 0 0 0 0 0 0 0 0 0 0 0 0 0 0 0 0 0 0 0 0 0 0 0 0 0 0 0 0 0 0
0 0 0 0 0 0 0 0 0 0 0 0 0 0 0 0 0 0 0 0 0 0 0 0 0 0 0 0 0 0 0 0 0 0 0 0 0 0 0 0 0 0 0
0 0 0 0 0 0 0 0 0 0 0 0 0 0 0 0 0 0 0 0 0 0 0 0 0 0 0 0 0 0 0 0 0 0 0 0 0 0 0 0 0 0 0
0 0 0 0 0 0 0 0 0 0 0 0 0 0 0 0 0 0 0 0 0 0 0 0 0 0 0 0 0 0 0 0 0 0 0 0 0 0 0 0 0 0 0
0 0 0 0 0 0 0 0 0 0 0 0 0 0 0 0 0 0 0 0 0 0 0 0 0 0 0 0 0 0 0 0 0 0 0 0 0 0 0 0 0 0 0
0 0 0 0 0 0 0 0 0 0 0 0 0 0 0 0 0 0 0 0 0 0 0 0 0 0 0 0 0 0 0 0 0 0 0 0 0 0 0 0 0 0 0
0 0 0 0 0 0 0 0 0 0 0 0 0 0 0 0 0 0 0 0 0 0 0 0 0 0 0 0 0 0 0 0 0 0 0 0 0 0 0 0 0 0 0
0 0 0 0 0 0 0 0 0 0 0 0 0 0 0 0 0 0 0 0 0 0 0 0 0 0 0 0 0 0 0 0 0 0 0 0 0 0 0 0 0 0 0
0 0 0 0 0 0 0 0 0 0 0 0 0 0 0 0 0 0 0 0 0 0 0 0 0 0 0 0 0 0 0 0 0 0 0 0 0 0 0 0 0 0 0
0 0 0 0 0 0 0 0 0 0 0 0 0 0 0 0 0 0 0 0 0 0 0 0 0 0 0 0 0 0 0 0 0 0 0 0 0 0 0 0 0 0 0
0 0 0 0 0 0 0 0 0 0 0 0 0 0 0 0 0 0 0 0 0 0 0 0 0 0 0 0 0 0 0 0 0 0 0 0 0 0 0 0 0 0 0
0 0 0 0 0 0 0 0 0 0 0 0 0 0 0 0 0 0 0 0 0 0 0 0 0 0 0 0 0 0 0 0 0 0 0 0 0 0 0 0 0 0 0
0 0 0 0 0 0 0 0 0 0 0 0 0 0 0 0 0 0 0 0 0 0 0 0 0 0 0 0 0 0 0 0 0 0 0 0 0 0 0 0 0 0 0
0 0 0 0 0 0 0 0 0 0 0 0 0 0 0 0 0 0 0 0 0 0 0 0 0 0 0 0 0 0 0 0 0 0 0 0 0 0 0 0 0 0 0
0 0 0 0 0 0 0 0 0 0 0 0 0 0 0 0 0 0 0 0 0 0 0 0 0 0 0 0 0 0 0 0 0 0 0 0 0 0 0 0 0 0 0
0 0 0 0 0 0 0 0 0 0 0 0 0 0 0 0 0 0 0 0 0 0 0 0 0 0 0 0 0 0 0 0 0 0 0 0 0 0 0 0 0 0 0
0 0 0 0 0 0 0 0 0 0 0 0 0 0 0 0 0 0 0 0 0 0 0 0 0 0 0 0 0 0 0 0 0 0 0 0 0 0 0 0 0 0 0
0 0 0 0 0 0 0 0 0 0 0 0 0 0 0 0 0 0 0 0 0 0 0 0 0 0 0 0 0 0 0 0 0 0 0 0 0 0 0 0 0 0 0
0 0 0 0 0 0 0 0 0 0 0 0 0 0 0 0 0 0 0 0 0 0 0 0 0 0 0 0 0 0 0 0 0 0 0 0 0 0 0 0 0 0 0
0 0 0 0 0 0 0 0 0 0 0 0 0 0 0 0 0 0 0 0 0 0 0 0 0 0 0 0 0 0 0 0 0 0 0 0 0 0 0 0 0 0 0
0 0 0 0 0 0 0 0 0 0 0 0 0 0 0 0 0 0 0 0 0 0 0 0 0 0 0 -0 -0 -0 -0 0 0 0 0 0 0 0 0 0 0 0 0
Wind_Speed_500mb
31 38 38 42 42 39 38 36 33 31 29 26 21 22 21 31 35 35 32 26 21 18 15 15 17 19 23 28 30 31 30 25 37 38 11 16 21 11 1 5 17 12 12
37 42 40 41 38 39 37 35 32 29 27 24 24 23 27 28 29 25 17 11 6 6 11 15 18 23 24 28 29 30 32 34 40 23 18 14 10 10 5 6 8 11 13
41 32 35 38 37 35 34 33 31 28 23 22 24 25 24 20 14 6 2 3 7 11 15 18 21 25 30 33 32 32 28 19 20 14 11 7 3 5 12 9 12 13 15
35 35 35 31 35 36 35 32 28 23 20 20 21 18 12 11 8 6 6 8 12 16 20 23 25 26 24 23 21 20 18 15 15 12 12 17 20 5 8 12 15 14 16
24 33 35 35 38 37 36 31 24 19 18 20 20 18 14 9 8 8 10 13 17 19 21 22 23 22 20 19 18 17 17 14 13 12 11 11 11 12 8 9 9 16 20
17 23 30 42 38 36 33 27 20 18 20 19 16 14 11 9 8 9 12 15 18 20 20 20 20 20 20 19 19 18 16 13 12 12 11 10 10 16 9 8 9 12 23
12 25 31 33 34 34 29 25 23 21 19 16 13 10 8 8 8 10 13 16 19 21 22 22 22 22 21 20 19 18 17 16 15 13 10 7 7 8 9 9 13 7 16
15 19 23 26 32 32 30 28 26 22 18 15 13 11 8 6 7 10 14 17 20 23 24 24 23 22 21 20 19 18 18 17 15 13 11 9 8 7 8 8 8 4 7
18 22 25 27 30 31 31 30 27 25 21 16 12 8 6 8 13 16 20 22 24 25 25 25 24 23 22 21 20 19 18 17 15 14 13 11 10 8 7 6 6 5 2
20 23 26 29 31 33 33 33 31 25 20 15 11 10 13 16 18 20 22 24 26 28 28 27 25 23 21 20 19 17 16 15 14 12 11 10 8 8 8 8 6 6 7
22 25 27 30 31 32 35 36 31 25 18 16 15 17 20 21 21 21 23 26 27 28 28 27 25 23 22 21 20 19 17 16 14 12 10 10 12 13 10 8 6 4 4
27 28 26 29 33 36 37 32 29 26 25 23 21 23 23 23 24 25 27 28 29 30 28 27 26 24 23 23 21 20 18 15 12 11 12 13 12 9 7 7 6 7 7
28 28 31 33 36 38 35 33 32 30 29 27 26 26 26 26 26 29 29 31 32 31 30 30 28 26 24 22 21 19 16 12 12 13 13 11 8 6 5 8 10 9 9
32 34 32 31 32 35 36 35 33 32 29 27 27 27 26 27 29 31 33 33 33 31 29 28 26 25 23 20 18 18 16 16 15 14 13 9 6 5 6 6 7 8 10
38 36 37 35 31 31 33 34 31 28 24 24 26 27 25 26 31 34 35 35 34 32 30 28 27 26 24 22 19 17 16 17 14 12 9 6 7 7 6 6 8 10 12
43 45 40 35 35 33 34 33 30 29 27 27 25 23 25 29 33 37 38 37 36 34 31 29 27 26 26 21 19 19 17 16 15 12 9 8 6 4 5 6 9 12 14
49 49 45 38 35 39 39 36 33 31 28 24 21 22 26 33 38 40 40 38 36 34 32 31 29 29 26 22 20 18 18 17 17 15 12 9 5 5 5 8 10 12 15
54 51 50 44 35 41 42 39 36 33 28 21 19 21 29 34 39 40 41 41 38 37 36 35 34 32 29 23 21 19 21 21 20 18 14 12 6 3 5 7 10 12 16
58 50 53 41 44 39 42 42 42 35 29 27 28 29 31 35 41 43 43 42 41 40 38 37 35 32 29 23 22 21 23 23 22 20 17 13 7 4 4 6 8 14 20
50 58 53 49 47 41 46 49 41 36 35 36 33 34 37 40 43 44 44 42 41 40 40 38 36 33 28 26 23 23 23 23 21 19 16 15 10 5 4 7 10 15 20
40 44 48 48 45 45 48 46 45 43 41 41 42 44 45 45 47 47 46 44 43 42 41 40 38 35 32 29 27 22 21 24 24 20 18 14 12 7 7 9 12 18 23
16 23 35 41 43 43 47 49 52 44 47 49 51 51 52 53 51 48 48 44 44 44 43 41 40 37 35 33 31 24 20 26 26 23 20 13 12 12 12 13 16 20 25
15 17 24 31 37 41 48 55 55 54 55 54 57 58 57 57 53 50 49 46 48 47 47 45 44 41 39 36 33 21 26 26 27 24 20 15 15 16 15 16 19 22 25
20 20 26 34 39 46 56 60 63 63 58 62 62 61 59 60 56 53 51 51 51 50 50 48 48 44 43 41 35 28 27 26 26 26 23 18 17 16 18 20 21 24 25
29 32 40 47 50 50 58 63 65 62 67 68 67 64 62 62 59 55 53 50 51 48 48 48 49 46 44 41 35 30 26 25 25 24 23 20 18 18 20 22 24 25 26
43 47 51 59 61 63 61 58 64 71 72 75 73 68 63 62 59 54 50 53 51 44 43 43 40 37 35 36 36 36 32 30 29 28 25 22 22 23 24 25 26 27 27
Wind_Direction_500mb
218 209 219 218 221 224 226 229 232 236 242 248 262 272 268 276 277 280 280 277 276 280 287 294 294 293 290 292 296 295 299 307 296 304 311 279 291 298 226 228 277 268 262
215 228 227 222 221 225 228 229 230 233 239 251 261 258 263 271 281 283 281 277 278 299 306 300 299 300 298 297 296 298 296 294 295 295 281 238 263 299 269 225 268 273 271
224 221 224 222 222 224 226 226 226 230 244 255 256 254 258 265 271 270 307 308 303 305 305 298 296 298 296 290 291 295 296 291 296 289 236 256 252 240 277 286 292 288 280
233 222 214 215 216 217 216 216 220 230 242 246 243 238 233 240 244 251 274 292 297 300 300 303 304 306 308 306 304 299 297 289 280 290 267 252 253 242 262 272 275 277 284
223 222 208 215 215 215 214 214 219 227 236 234 229 219 224 235 244 263 280 294 301 307 311 312 312 310 310 309 305 302 298 295 288 280 274 261 277 278 251 258 265 301 285
219 192 195 213 208 205 207 209 209 216 221 221 214 214 219 235 259 280 291 296 303 308 312 314 316 316 313 310 307 304 300 294 285 280 276 272 249 267 254 241 234 237 271
171 176 201 196 197 196 197 195 199 201 199 192 190 194 203 222 251 273 292 305 313 318 321 321 321 320 318 314 310 305 303 301 300 296 294 296 290 285 279 267 256 239 285
165 173 174 184 187 187 188 191 190 184 176 169 173 183 201 234 279 302 308 311 313 316 317 318 317 316 315 314 311 310 309 308 311 313 317 322 322 316 308 299 289 296 274
164 168 174 181 186 188 189 186 176 168 166 170 183 203 248 291 302 307 311 314 314 314 313 313 314 313 313 313 312 311 310 308 308 310 317 325 331 329 321 306 289 268 233
165 169 177 184 188 189 184 176 170 170 180 194 217 259 286 292 297 305 310 313 317 319 318 316 313 313 313 310 308 306 303 299 299 303 310 315 317 316 314 309 302 282 263
176 178 181 188 190 184 179 177 183 195 208 230 256 276 282 283 289 301 311 315 317 317 313 310 308 307 304 299 295 289 285 284 288 289 293 304 313 317 321 324 327 322 294
185 184 187 191 189 184 185 191 204 220 232 245 261 268 277 285 291 300 303 304 310 308 305 304 301 297 293 289 285 279 274 271 270 280 294 300 305 318 333 343 11 2 334
186 190 191 192 190 190 197 212 225 236 246 258 271 281 285 286 288 295 300 303 302 301 300 299 296 293 290 286 282 277 271 265 272 286 290 295 306 329 0 347 340 346 344
190 189 188 185 189 201 217 227 237 248 258 271 280 283 281 282 290 296 296 295 294 292 290 288 286 284 281 276 273 267 263 269 278 278 279 283 296 318 329 333 345 354 353
197 199 198 199 208 221 232 241 250 264 269 269 265 265 274 283 286 287 286 284 281 280 279 278 276 275 272 268 263 258 263 269 269 269 276 274 282 297 322 340 358 1 0
203 203 206 211 218 233 243 248 252 250 248 245 252 261 270 275 278 278 277 277 276 275 273 272 271 267 265 259 247 253 256 260 261 248 242 261 283 303 331 348 353 0 3
207 210 214 218 228 233 240 243 244 237 231 234 246 265 276 277 275 276 277 275 274 272 269 266 264 262 263 254 245 252 258 243 234 238 240 241 261 303 334 347 353 354 354
215 225 231 231 240 243 238 237 230 226 229 239 257 281 281 282 279 276 274 271 270 268 265 261 257 255 259 253 251 242 230 231 231 231 230 234 215 258 318 337 339 345 353
228 231 245 249 268 266 239 230 225 224 227 243 266 283 281 283 281 275 272 270 267 262 258 255 250 250 257 249 256 240 228 224 223 223 219 227 233 215 288 309 333 345 343
234 243 250 274 275 253 230 225 225 228 246 258 275 275 278 278 278 273 269 266 261 256 252 249 248 245 242 255 246 227 232 230 227 222 214 231 250 231 289 328 332 331 334
250 253 256 256 255 237 232 230 232 241 259 263 272 277 278 278 276 269 264 261 256 251 248 245 244 239 242 242 235 219 235 241 237 229 225 222 253 291 298 312 321 328 329
246 246 244 244 240 240 236 236 242 255 263 270 275 279 279 273 269 265 259 254 251 249 248 243 239 239 240 241 232 212 223 235 236 233 238 239 258 283 297 309 315 321 319
227 249 256 253 248 243 241 244 251 255 263 273 280 279 274 269 265 260 255 250 249 248 246 240 237 237 231 230 235 210 219 224 230 234 237 241 259 278 291 298 307 310 306
249 265 251 243 245 247 246 251 256 258 271 279 278 274 271 266 260 256 252 249 248 249 243 240 237 234 228 225 232 218 219 222 228 231 237 246 256 271 284 293 298 298 302
257 256 264 262 258 251 253 256 260 272 283 280 277 273 268 262 257 252 252 251 258 252 251 247 243 237 230 230 231 230 226 229 233 235 241 251 263 273 281 286 290 295 299
259 260 260 255 256 259 260 264 272 278 279 277 274 269 265 259 253 251 250 254 252 246 244 242 239 236 228 227 229 231 232 232 236 239 245 256 266 272 277 283 287 290 298
Wind_Speed_850mb
31 38 38 42 42 39 38 36 33 31 29 26 21 22 21 31 35 35 32 26 21 18 15 15 17 19 23 28 30 31 30 25 37 38 11 16 21 11 1 5 17 12 12
37 42 40 41 38 39 37 35 32 29 27 24 24 23 27 28 29 25 17 11 6 6 11 15 18 23 24 28 29 30 32 34 40 23 18 14 10 10 5 6 8 11 13
41 32 35 38 37 35 34 33 31 28 23 22 24 25 24 20 14 6 2 3 7 11 15 18 21 25 30 33 32 32 28 19 20 14 11 7 3 5 12 9 12 13 15
35 35 35 31 35 36 35 32 28 23 20 20 21 18 12 11 8 6 6 8 12 16 20 23 25 26 24 23 21 20 18 15 15 12 12 17 20 5 8 12 15 14 16
24 33 35 35 38 37 36 31 24 19 18 20 20 18 14 9 8 8 10 13 17 19 21 22 23 22 20 19 18 17 17 14 13 12 11 11 11 12 8 9 9 16 20
17 23 30 42 38 36 33 27 20 18 20 19 16 14 11 9 8 9 12 15 18 20 20 20 20 20 20 19 19 18 16 13 12 12 11 10 10 16 9 8 9 12 23
12 25 31 33 34 34 29 25 23 21 19 16 13 10 8 8 8 10 13 16 19 21 22 22 22 22 21 20 19 18 17 16 15 13 10 7 7 8 9 9 13 7 16
15 19 23 26 32 32 30 28 26 22 18 15 13 11 8 6 7 10 14 17 20 23 24 24 23 22 21 20 19 18 18 17 15 13 11 9 8 7 8 8 8 4 7
18 22 25 27 30 31 31 30 27 25 21 16 12 8 6 8 13 16 20 22 24 25 25 25 24 23 22 21 20 19 18 17 15 14 13 11 10 8 7 6 6 5 2
20 23 26 29 31 33 33 33 31 25 20 15 11 10 13 16 18 20 22 24 26 28 28 27 25 23 21 20 19 17 16 15 14 12 11 10 8 8 8 8 6 6 7
22 25 27 30 31 32 35 36 31 25 18 16 15 17 20 21 21 21 23 26 27 28 28 27 25 23 22 21 20 19 17 16 14 12 10 10 12 13 10 8 6 4 4
27 28 26 29 33 36 37 32 29 26 25 23 21 23 23 23 24 25 27 28 29 30 28 27 26 24 23 23 21 20 18 15 12 11 12 13 12 9 7 7 6 7 7
28 28 31 33 36 38 35 33 32 30 29 27 26 26 26 26 26 29 29 31 32 31 30 30 28 26 24 22 21 19 16 12 12 13 13 11 8 6 5 8 10 9 9
32 34 32 31 32 35 36 35 33 32 29 27 27 27 26 27 29 31 33 33 33 31 29 28 26 25 23 20 18 18 16 16 15 14 13 9 6 5 6 6 7 8 10
38 36 37 35 31 31 33 34 31 28 24 24 26 27 25 26 31 34 35 35 34 32 30 28 27 26 24 22 19 17 16 17 14 12 9 6 7 7 6 6 8 10 12
43 45 40 35 35 33 34 33 30 29 27 27 25 23 25 29 33 37 38 37 36 34 31 29 27 26 26 21 19 19 17 16 15 12 9 8 6 4 5 6 9 12 14
49 49 45 38 35 39 39 36 33 31 28 24 21 22 26 33 38 40 40 38 36 34 32 31 29 29 26 22 20 18 18 17 17 15 12 9 5 5 5 8 10 12 15
54 51 50 44 35 41 42 39 36 33 28 21 19 21 29 34 39 40 41 41 38 37 36 35 34 32 29 23 21 19 21 21 20 18 14 12 6 3 5 7 10 12 16
58 50 53 41 44 39 42 42 42 35 29 27 28 29 31 35 41 43 43 42 41 40 38 37 35 32 29 23 22 21 23 23 22 20 17 13 7 4 4 6 8 14 20
50 58 53 49 47 41 46 49 41 36 35 36 33 34 37 40 43 44 44 42 41 40 40 38 36 33 28 26 23 23 23 23 21 19 16 15 10 5 4 7 10 15 20
40 44 48 48 45 45 48 46 45 43 41 41 42 44 45 45 47 47 46 44 43 42 41 40 38 35 32 29 27 22 21 24 24 20 18 14 12 7 7 9 12 18 23
16 23 35 41 43 43 47 49 52 44 47 49 51 51 52 53 51 48 48 44 44 44 43 41 40 37 35 33 31 24 20 26 26 23 20 13 12 12 12 13 16 20 25
15 17 24 31 37 41 48 55 55 54 55 54 57 58 57 57 53 50 49 46 48 47 47 45 44 41 39 36 33 21 26 26 27 24 20 15 15 16 15 16 19 22 25
20 20 26 34 39 46 56 60 63 63 58 62 62 61 59 60 56 53 51 51 51 50 50 48 48 44 43 41 35 28 27 26 26 26 23 18 17 16 18 20 21 24 25
29 32 40 47 50 50 58 63 65 62 67 68 67 64 62 62 59 55 53 50 51 48 48 48 49 46 44 41 35 30 26 25 25 24 23 20 18 18 20 22 24 25 26
43 47 51 59 61 63 61 58 64 71 72 75 73 68 63 62 59 54 50 53 51 44 43 43 40 37 35 36 36 36 32 30 29 28 25 22 22 23 24 25 26 27 27
Wind_Direction_850mb
218 209 219 218 221 224 226 229 232 236 242 248 262 272 268 276 277 280 280 277 276 280 287 294 294 293 290 292 296 295 299 307 296 304 311 279 291 298 226 228 277 268 262
215 228 227 222 221 225 228 229 230 233 239 251 261 258 263 271 281 283 281 277 278 299 306 300 299 300 298 297 296 298 296 294 295 295 281 238 263 299 269 225 268 273 271
224 221 224 222 222 224 226 226 226 230 244 255 256 254 258 265 271 270 307 308 303 305 305 298 296 298 296 290 291 295 296 291 296 289 236 256 252 240 277 286 292 288 280
233 222 214 215 216 217 216 216 220 230 242 246 243 238 233 240 244 251 274 292 297 300 300 303 304 306 308 306 304 299 297 289 280 290 267 252 253 242 262 272 275 277 284
223 222 208 215 215 215 214 214 219 227 236 234 229 219 224 235 244 263 280 294 301 307 311 312 312 310 310 309 305 302 298 295 288 280 274 261 277 278 251 258 265 301 285
219 192 195 213 208 205 207 209 209 216 221 221 214 214 219 235 259 280 291 296 303 308 312 314 316 316 313 310 307 304 300 294 285 280 276 272 249 267 254 241 234 237 271
171 176 201 196 197 196 197 195 199 201 199 192 190 194 203 222 251 273 292 305 313 318 321 321 321 320 318 314 310 305 303 301 300 296 294 296 290 285 279 267 256 239 285
165 173 174 184 187 187 188 191 190 184 176 169 173 183 201 234 279 302 308 311 313 316 317 318 317 316 315 314 311 310 309 308 311 313 317 322 322 316 308 299 289 296 274
164 168 174 181 186 188 189 186 176 168 166 170 183 203 248 291 302 307 311 314 314 314 313 313 314 313 313 313 312 311 310 308 308 310 317 325 331 329 321 306 289 268 233
165 169 177 184 188 189 184 176 170 170 180 194 217 259 286 292 297 305 310 313 317 319 318 316 313 313 313 310 308 306 303 299 299 303 310 315 317 316 314 309 302 282 263
176 178 181 188 190 184 179 177 183 195 208 230 256 276 282 283 289 301 311 315 317 317 313 310 308 307 304 299 295 289 285 284 288 289 293 304 313 317 321 324 327 322 294
185 184 187 191 189 184 185 191 204 220 232 245 261 268 277 285 291 300 303 304 310 308 305 304 301 297 293 289 285 279 274 271 270 280 294 300 305 318 333 343 11 2 334
186 190 191 192 190 190 197 212 225 236 246 258 271 281 285 286 288 295 300 303 302 301 300 299 296 293 290 286 282 277 271 265 272 286 290 295 306 329 0 347 340 346 344
190 189 188 185 189 201 217 227 237 248 258 271 280 283 281 282 290 296 296 295 294 292 290 288 286 284 281 276 273 267 263 269 278 278 279 283 296 318 329 333 345 354 353
197 199 198 199 208 221 232 241 250 264 269 269 265 265 274 283 286 287 286 284 281 280 279 278 276 275 272 268 263 258 263 269 269 269 276 274 282 297 322 340 358 1 0
203 203 206 211 218 233 243 248 252 250 248 245 252 261 270 275 278 278 277 277 276 275 273 272 271 267 265 259 247 253 256 260 261 248 242 261 283 303 331 348 353 0 3
207 210 214 218 228 233 240 243 244 237 231 234 246 265 276 277 275 276 277 275 274 272 269 266 264 262 263 254 245 252 258 243 234 238 240 241 261 303 334 347 353 354 354
215 225 231 231 240 243 238 237 230 226 229 239 257 281 281 282 279 276 274 271 270 268 265 261 257 255 259 253 251 242 230 231 231 231 230 234 215 258 318 337 339 345 353
228 231 245 249 268 266 239 230 225 224 227 243 266 283 281 283 281 275 272 270 267 262 258 255 250 250 257 249 256 240 228 224 223 223 219 227 233 215 288 309 333 345 343
234 243 250 274 275 253 230 225 225 228 246 258 275 275 278 278 278 273 269 266 261 256 252 249 248 245 242 255 246 227 232 230 227 222 214 231 250 231 289 328 332 331 334
250 253 256 256 255 237 232 230 232 241 259 263 272 277 278 278 276 269 264 261 256 251 248 245 244 239 242 242 235 219 235 241 237 229 225 222 253 291 298 312 321 328 329
246 246 244 244 240 240 236 236 242 255 263 270 275 279 279 273 269 265 259 254 251 249 248 243 239 239 240 241 232 212 223 235 236 233 238 239 258 283 297 309 315 321 319
227 249 256 253 248 243 241 244 251 255 263 273 280 279 274 269 265 260 255 250 249 248 246 240 237 237 231 230 235 210 219 224 230 234 237 241 259 278 291 298 307 310 306
249 265 251 243 245 247 246 251 256 258 271 279 278 274 271 266 260 256 252 249 248 249 243 240 237 234 228 225 232 218 219 222 228 231 237 246 256 271 284 293 298 298 302
257 256 264 262 258 251 253 256 260 272 283 280 277 273 268 262 257 252 252 251 258 252 251 247 243 237 230 230 231 230 226 229 233 235 241 251 263 273 281 286 290 295 299
259 260 260 255 256 259 260 264 272 278 279 277 274 269 265 259 253 251 250 254 252 246 244 242 239 236 228 227 229 231 232 232 236 239 245 256 266 272 277 283 287 290 298